This is the latest recevied weather packets stored in our database for station/object KN6DHD. If no packets are shown the sender has not sent any weather packets the latest 10 day(s).
| Time | Temp. | Humidity | Pressure | Rain* | Wind** | Luminosity | Snow |
|---|---|---|---|---|---|---|---|
| 1777602239 | 23.89° C | 59% | 1011.2 hPa | 0 mm | - | 16 W/m² | - |
| 1777601935 | 23.89° C | 59% | 1011.1 hPa | 0 mm | - | 17 W/m² | - |
| 1777601629 | 24.44° C | 58% | 1011 hPa | 0 mm | - | 20 W/m² | - |
| 1777601325 | 25° C | 59% | 1011 hPa | 0 mm | - | 21 W/m² | - |
| 1777601022 | 25° C | 60% | 1011.4 hPa | 0 mm | - | 26 W/m² | - |
| 1777600719 | 25.56° C | 58% | 1011.1 hPa | 0 mm | - | 25 W/m² | - |
| 1777600415 | 25.56° C | 59% | 1011 hPa | 0 mm | - | 26 W/m² | - |
| 1777600110 | 26.11° C | 56% | 1011.2 hPa | 0 mm | - | 29 W/m² | - |
| 1777599806 | 26.11° C | 54% | 1011.1 hPa | 0 mm | - | 30 W/m² | - |
| 1777599502 | 26.67° C | 53% | 1011.2 hPa | 0 mm | - | 32 W/m² | - |
| 1777599199 | 26.67° C | 53% | 1011.1 hPa | 0 mm | - | 33 W/m² | - |
| 1777598895 | 26.67° C | 53% | 1011.2 hPa | 0 mm | - | 35 W/m² | - |
| 1777598592 | 26.67° C | 52% | 1011 hPa | 0 mm | - | 35 W/m² | - |
| 1777598288 | 26.67° C | 51% | 1011.2 hPa | 0 mm | - | 36 W/m² | - |
| 1777597987 | 26.67° C | 51% | 1011.3 hPa | 0 mm | - | 38 W/m² | - |
| 1777597685 | 26.67° C | 50% | 1011.1 hPa | 0 mm | - | 39 W/m² | - |
| 1777597382 | 27.22° C | 48% | 1010.9 hPa | 0 mm | - | 40 W/m² | - |
| 1777597077 | 27.22° C | 48% | 1011 hPa | 0 mm | - | 41 W/m² | - |
| 1777596774 | 27.78° C | 47% | 1011 hPa | 0 mm | - | 46 W/m² | - |
| 1777596469 | 27.78° C | 47% | 1011.1 hPa | 0 mm | - | 51 W/m² | - |
| 1777596167 | 27.78° C | 47% | 1011.1 hPa | 0 mm | - | 147 W/m² | - |
| 1777595864 | 28.33° C | 47% | 1010.7 hPa | 0 mm | - | 46 W/m² | - |
| 1777595564 | 28.33° C | 47% | 1010.9 hPa | 0 mm | - | 47 W/m² | - |
| 1777595260 | 27.78° C | 47% | 1011.3 hPa | 0 mm | - | 50 W/m² | - |
| 1777594956 | 28.33° C | 47% | 1011.1 hPa | 0 mm | - | 257 W/m² | - |
* Rain latest hour (hover to see other rain measurements)
** Current wind speed in m/s (hover to see current wind gust speed)